[[{"header":{"parameterUnit":"m.s-1","parameterCategory":1,"la1":30.2991,"la2":30.254,"lo1":-89.0895,"lo2":-89.0444,"dy":0.0017,"dx":0.0017,"nx":28,"ny":28,"refTime":"2023-04-16T21:00:00:Z","depth":0,"parameterNumber":2,"parameterNumberName":"U-component_of_WINDS"},"data":[0,0,0,0,0,0,0,0,0,0,0,0,0,0,0,0,0,0,0,0,0,0,0,0,0,0,0,0,0,0,0,0,0,0,0,0,0,0,0,0,0,0,0,0,0,0,0,0,0,0,0,0,0,0,0,0,0,0,3.1879,3.188,0,3.1941,3.1942,3.1942,3.1943,3.1942,3.1941,3.194,3.2005,3.2007,3.201,0,0,0,0,0,0,0,0,0,0,0,0,0,3.1765,3.1767,3.1879,3.188,3.1881,3.1941,3.1942,3.1943,3.1943,3.1942,3.1941,3.194,3.2004,3.2007,3.201,0,0,0,0,0,0,0,0,0,0,0,0,0,3.182,3.1768,3.1879,3.1888,3.189,3.1941,3.1942,3.1943,3.1943,3.1942,3.1941,3.194,3.2003,3.2007,3.2011,3.2057,0,0,3.2022,3.2023,0,0,0,0,0,0,0,0,3.1817,3.1824,3.1886,3.1888,3.1889,3.1933,3.1925,3.1981,3.1943,3.1923,3.194,3.1939,3.1982,3.1988,3.2002,3.206,3.2063,3.2022,3.2024,3.2026,3.2027,0,0,0,0,0,0,0,3.1813,3.1821,3.1904,3.1887,3.1889,3.189,3.1897,3.1936,3.1959,3.1925,3.1925,3.1932,3.1983,3.1998,3.2003,3.2064,3.2022,3.2025,3.2028,3.2029,3.2167,3.2168,0,0,0,0,0,0,3.1807,3.1818,3.1902,3.1906,3.1849,3.1893,3.1901,3.192,3.1958,3.1963,3.1933,3.1932,3.1992,3.1999,3.2006,3.2064,3.2026,3.2029,3.2032,3.2165,3.2167,3.2169,0,0,0,0,0,0,3.1804,3.1814,3.1899,3.1862,3.1873,3.1897,3.1919,3.1922,3.1937,3.1964,3.1969,3.1944,3.1992,3.2,3.2045,3.2066,3.2031,3.2034,3.2164,3.2166,3.2168,3.2181,0,0,0,0,0,0,3.1801,3.1813,3.183,3.1862,3.1875,3.1937,3.192,3.1924,3.1944,3.1943,3.1976,3.198,3.1991,3.2039,3.2049,3.2071,3.2037,3.2162,3.2165,3.2167,3.2179,3.2183,3.2187,0,0,0,0,0,3.1797,3.1831,3.1831,3.1841,3.1896,3.1938,3.1945,3.1957,3.1945,3.1963,3.1981,3.1979,3.2063,3.2044,3.2054,3.2078,3.216,3.2164,3.2167,3.2177,3.2182,3.2187,0,0,0,0,0,0,3.1801,3.1836,3.1836,3.1881,3.1907,3.1938,3.1961,3.1962,3.1991,3.1989,3.2003,3.201,3.2055,3.2071,3.2049,3.2127,3.211,3.2116,3.2114,3.212,3.2124,3.2119,3.204,0,0,0,0,0,3.1808,3.1837,3.1866,3.1904,3.1916,3.1936,3.1955,3.1962,3.1989,3.1999,3.202,3.2047,3.208,3.2101,3.2132,3.2181,3.219,3.2203,3.2207,3.2211,3.2215,3.2245,3.2251,3.2179,3.2179,3.2179,0,0,3.1821,3.1843,3.1861,3.1905,3.1926,3.1958,3.1945,3.1979,3.2003,3.2005,3.2048,3.2065,3.2096,3.2144,3.2166,3.2158,3.2237,3.2215,3.2217,3.222,3.2249,3.2256,3.2262,3.2181,3.2181,3.2181,0,0,3.1861,3.1881,3.1915,3.1936,3.1967,3.1981,3.1989,3.2021,3.2032,3.2075,3.2078,3.2108,3.2163,3.2185,3.2204,3.2256,3.2256,3.2266,3.2288,3.2317,3.2322,3.2328,3.2347,3.2354,3.227,3.227,3.227,0,3.1874,3.1921,3.1932,3.1967,3.1987,3.199,3.2026,3.2046,3.2086,3.2101,3.2092,3.2162,3.2183,3.2237,3.225,3.2265,3.2276,3.2262,3.232,3.2326,3.2331,3.235,3.2357,3.2271,3.2271,3.2271,3.2271,0,3.1936,3.1968,3.1993,3.2031,3.2054,3.2089,3.2108,3.213,3.2135,3.215,3.2196,3.2222,3.2259,3.2273,3.2278,3.2329,3.2323,3.2317,3.2301,3.2339,3.2357,3.2364,3.2273,3.2273,3.2272,3.2272,0,0,3.1979,3.2025,3.2034,3.2052,3.2088,3.2115,3.2151,3.2187,3.2207,3.2235,3.2267,3.2314,3.231,3.2331,3.234,3.2365,3.2406,3.2356,3.2357,3.2366,3.2466,3.247,3.2478,3.2407,3.2408,3.241,3.2463,0,3.2024,3.2087,3.21,3.2155,3.2187,3.2192,3.2224,3.225,3.2265,3.2296,3.2313,3.2347,3.2338,3.2351,3.2376,3.2396,3.2427,3.2392,3.2438,3.2439,3.243,3.2487,3.2492,3.2541,3.247,3.2472,3.2472,0,3.2084,3.2114,3.2173,3.2207,3.222,3.2248,3.2284,3.2313,3.2344,3.2353,3.2378,3.2385,3.2424,3.2407,3.2462,3.2439,3.2459,3.2471,3.2474,3.2478,3.2458,3.2495,3.2557,3.2565,3.2484,3.2483,3.2482,0,3.2111,3.2167,3.2209,3.2225,3.2265,3.2285,3.2303,3.2332,3.2354,3.2386,3.2401,3.2437,3.2457,3.2485,3.2502,3.2487,3.2557,3.254,3.2568,3.2567,3.2582,3.2581,3.2649,3.2594,3.2594,3.2593,3.2593,0,3.2161,3.2197,3.2222,3.2249,3.229,3.2305,3.2346,3.2364,3.2391,3.2422,3.2428,3.2457,3.2477,3.251,3.2524,3.2569,3.2577,3.2587,3.2591,3.2587,3.2586,3.26,3.2597,3.2595,3.2595,3.2595,3.2594,0,3.2198,3.2216,3.2263,3.2298,3.2308,3.2337,3.2367,3.2394,3.241,3.2449,3.246,3.2486,3.2525,3.2544,3.2592,3.2602,3.2653,3.2654,3.2642,3.2644,3.267,3.2668,3.275,3.2762,3.2699,3.2699,3.27,0,3.2228,3.2256,3.2294,3.2315,3.2333,3.2367,3.239,3.2407,3.243,3.2469,3.2491,3.2531,3.2563,3.2625,3.2649,3.2687,3.2689,3.2716,3.2695,3.2691,3.2691,3.2689,3.2693,3.2719,3.272,3.272,3.2721,0,3.228,3.2288,3.232,3.2357,3.2384,3.2413,3.2442,3.2459,3.2481,3.2508,3.2547,3.2573,3.2623,3.2662,3.2702,3.2722,3.2726,3.2727,3.2736,3.2732,3.2725,3.2731,3.2653,3.2725,3.2725,3.2724,3.2724,3.2724,3.2315,3.2341,3.2372,3.2409,3.2432,3.246,3.2487,3.2507,3.2541,3.2583,3.2591,3.2634,3.2666,3.272,3.2742,3.2776,3.2771,3.2783,3.2786,3.2789,3.2791,3.272,3.2784,3.2784,3.2783,3.2783,3.2783,0,3.2369,3.239,3.2423,3.2463,3.2493,3.2493,3.2526,3.2551,3.2588,3.2618,3.265,3.2697,3.2736,3.2764,3.2804,3.2827,3.283,3.2837,3.2835,3.284,3.2793,3.2782,3.2834,3.2834,3.2834,3.2834,3.2834,3.2834,3.24,3.2444,3.2457,3.2514,3.2535,3.2576,3.2595,3.2621,3.2645,3.2697,3.273,3.2748,3.2777,3.282,3.2857,3.2864,3.2879,3.2886,3.2894,3.2849,3.2843,3.2838,3.2828,3.2889,3.2889,3.2939,3.2939,3.2939]},{"header":{"parameterUnit":"m.s-1","parameterCategory":1,"la1":30.2991,"la2":30.254,"lo1":-89.0895,"lo2":-89.0444,"dy":0.0017,"dx":0.0017,"nx":28,"ny":28,"refTime":"2023-04-16T21:00:00:Z","depth":0,"parameterNumber":3,"parameterNumberName":"V-component_of_WINDS"},"data":[0,0,0,0,0,0,0,0,0,0,0,0,0,0,0,0,0,0,0,0,0,0,0,0,0,0,0,0,0,0,0,0,0,0,0,0,0,0,0,0,0,0,0,0,0,0,0,0,0,0,0,0,0,0,0,0,0,0,-3.9343,-3.9344,0,-3.9375,-3.9375,-3.9376,-3.9381,-3.9381,-3.9381,-3.938,-3.9411,-3.9412,-3.9413,0,0,0,0,0,0,0,0,0,0,0,0,0,-3.9287,-3.9288,-3.9343,-3.9344,-3.9344,-3.9375,-3.9375,-3.9376,-3.9381,-3.9381,-3.938,-3.938,-3.941,-3.9412,-3.9413,0,0,0,0,0,0,0,0,0,0,0,0,0,-3.9314,-3.9288,-3.9343,-3.935,-3.9351,-3.9375,-3.9375,-3.9376,-3.9381,-3.9381,-3.938,-3.938,-3.941,-3.9412,-3.9413,-3.9431,0,0,-3.9418,-3.9419,0,0,0,0,0,0,0,0,-3.9312,-3.9316,-3.9349,-3.935,-3.9351,-3.9374,-3.9367,-3.9394,-3.9381,-3.937,-3.938,-3.938,-3.9399,-3.9401,-3.9408,-3.9432,-3.9434,-3.9418,-3.9419,-3.942,-3.942,0,0,0,0,0,0,0,-3.9311,-3.9315,-3.9356,-3.9349,-3.9351,-3.9352,-3.9355,-3.9372,-3.9386,-3.9371,-3.9371,-3.9375,-3.9399,-3.9406,-3.9409,-3.9434,-3.9418,-3.9419,-3.942,-3.9421,-3.9477,-3.9478,0,0,0,0,0,0,-3.9308,-3.9313,-3.9355,-3.9357,-3.933,-3.9353,-3.9357,-3.9367,-3.9386,-3.9388,-3.9375,-3.9375,-3.9404,-3.9407,-3.941,-3.9433,-3.942,-3.9421,-3.9422,-3.9477,-3.9477,-3.9478,0,0,0,0,0,0,-3.9306,-3.9311,-3.9353,-3.9335,-3.9341,-3.9355,-3.9365,-3.9368,-3.9375,-3.9389,-3.9392,-3.938,-3.9404,-3.9407,-3.9426,-3.9434,-3.9422,-3.9423,-3.9476,-3.9477,-3.9477,-3.9479,0,0,0,0,0,0,-3.9305,-3.9311,-3.9317,-3.9335,-3.9342,-3.9369,-3.9366,-3.9369,-3.9378,-3.9378,-3.9395,-3.9397,-3.9404,-3.9424,-3.9428,-3.9436,-3.9425,-3.9475,-3.9476,-3.9477,-3.9479,-3.948,-3.9481,0,0,0,0,0,-3.9303,-3.9316,-3.9318,-3.9323,-3.935,-3.937,-3.9373,-3.9382,-3.9378,-3.9386,-3.9395,-3.9396,-3.9433,-3.9426,-3.943,-3.9439,-3.9475,-3.9476,-3.9477,-3.9478,-3.948,-3.9481,0,0,0,0,0,0,-3.9297,-3.9318,-3.932,-3.934,-3.9353,-3.9371,-3.938,-3.9383,-3.9397,-3.9396,-3.9405,-3.9409,-3.9427,-3.9435,-3.9427,-3.9459,-3.9454,-3.9456,-3.9453,-3.9454,-3.9456,-3.9453,-3.9426,0,0,0,0,0,-3.9298,-3.9313,-3.933,-3.9346,-3.9352,-3.9365,-3.9374,-3.9379,-3.9393,-3.9398,-3.9409,-3.9422,-3.9437,-3.9446,-3.946,-3.948,-3.9484,-3.9489,-3.949,-3.9491,-3.9493,-3.9505,-3.9508,-3.9482,-3.9482,-3.9482,0,0,-3.93,-3.9314,-3.9322,-3.9345,-3.9356,-3.9371,-3.937,-3.9385,-3.9396,-3.94,-3.9419,-3.9428,-3.9443,-3.9463,-3.9472,-3.947,-3.9501,-3.9493,-3.9493,-3.9494,-3.9507,-3.9509,-3.9511,-3.9483,-3.9482,-3.9482,0,0,-3.9312,-3.9323,-3.9338,-3.935,-3.9367,-3.9376,-3.938,-3.9398,-3.9404,-3.9424,-3.9428,-3.9441,-3.9466,-3.9477,-3.9486,-3.9505,-3.9507,-3.951,-3.9516,-3.9529,-3.9531,-3.9533,-3.954,-3.9543,-3.9511,-3.9511,-3.9511,0,-3.9312,-3.9335,-3.9345,-3.9361,-3.9372,-3.9378,-3.9394,-3.9404,-3.9425,-3.9432,-3.943,-3.9463,-3.9473,-3.9496,-3.9502,-3.9508,-3.9513,-3.9507,-3.953,-3.9532,-3.9534,-3.9541,-3.9544,-3.9511,-3.9511,-3.9511,-3.9511,0,-3.9335,-3.9351,-3.9361,-3.9383,-3.9395,-3.941,-3.9423,-3.9434,-3.9439,-3.9448,-3.9469,-3.9482,-3.95,-3.9506,-3.951,-3.953,-3.9529,-3.9528,-3.9523,-3.9536,-3.9543,-3.9546,-3.9512,-3.9512,-3.9512,-3.9512,0,0,-3.9342,-3.9372,-3.9375,-3.9386,-3.9407,-3.9419,-3.9436,-3.9455,-3.9464,-3.9479,-3.9493,-3.9515,-3.9515,-3.9526,-3.9532,-3.9542,-3.9558,-3.954,-3.9541,-3.9544,-3.9583,-3.9583,-3.9586,-3.956,-3.9561,-3.9561,-3.9581,0,-3.9357,-3.9387,-3.9398,-3.9423,-3.9439,-3.9447,-3.9461,-3.9476,-3.9485,-3.95,-3.9511,-3.9527,-3.9525,-3.9532,-3.9543,-3.9554,-3.9566,-3.9553,-3.9573,-3.9574,-3.9569,-3.959,-3.959,-3.9608,-3.9584,-3.9585,-3.9585,0,-3.9377,-3.9394,-3.9421,-3.9442,-3.9449,-3.9462,-3.9482,-3.9495,-3.9513,-3.9519,-3.9532,-3.9538,-3.9556,-3.9551,-3.9576,-3.9567,-3.9576,-3.9583,-3.9584,-3.9586,-3.958,-3.9592,-3.9614,-3.9617,-3.9589,-3.9589,-3.9589,0,-3.938,-3.941,-3.943,-3.9439,-3.9464,-3.9474,-3.9484,-3.9501,-3.9513,-3.9529,-3.9537,-3.9555,-3.9565,-3.9579,-3.959,-3.9585,-3.9615,-3.961,-3.9621,-3.9621,-3.9626,-3.9625,-3.965,-3.9632,-3.9632,-3.9632,-3.9632,0,-3.9395,-3.9412,-3.9433,-3.9445,-3.9464,-3.9477,-3.9495,-3.9507,-3.9522,-3.9537,-3.9545,-3.9559,-3.9573,-3.9588,-3.9597,-3.9617,-3.9622,-3.9627,-3.963,-3.9627,-3.9626,-3.9633,-3.9632,-3.9633,-3.9633,-3.9633,-3.9632,0,-3.9402,-3.9416,-3.9439,-3.9462,-3.9468,-3.9481,-3.9501,-3.9514,-3.9525,-3.9544,-3.9549,-3.9566,-3.9585,-3.9598,-3.9622,-3.9628,-3.9651,-3.9652,-3.9645,-3.9646,-3.9656,-3.9655,-3.9685,-3.969,-3.9669,-3.9669,-3.967,0,-3.941,-3.9423,-3.9448,-3.946,-3.9471,-3.9489,-3.9501,-3.9515,-3.9527,-3.955,-3.956,-3.958,-3.9597,-3.9627,-3.9642,-3.9661,-3.9663,-3.9672,-3.9665,-3.9663,-3.9663,-3.9663,-3.9664,-3.9673,-3.9673,-3.9673,-3.9673,0,-3.9424,-3.9431,-3.9449,-3.947,-3.9485,-3.9502,-3.9519,-3.9527,-3.9544,-3.9558,-3.9579,-3.9592,-3.9618,-3.9638,-3.9659,-3.967,-3.9675,-3.9676,-3.9679,-3.9676,-3.9672,-3.9675,-3.9648,-3.9675,-3.9675,-3.9674,-3.9674,-3.9674,-3.9432,-3.9444,-3.9465,-3.9485,-3.95,-3.9516,-3.953,-3.9544,-3.9562,-3.9585,-3.9592,-3.9613,-3.9632,-3.9661,-3.9673,-3.969,-3.9689,-3.9693,-3.9695,-3.9696,-3.9696,-3.967,-3.9694,-3.9694,-3.9693,-3.9693,-3.9693,0,-3.9446,-3.946,-3.9479,-3.9504,-3.952,-3.9525,-3.9544,-3.9557,-3.9577,-3.9595,-3.9612,-3.9636,-3.9657,-3.9674,-3.9695,-3.9705,-3.9708,-3.971,-3.9709,-3.9712,-3.9696,-3.9691,-3.9708,-3.9708,-3.9708,-3.9708,-3.9708,-3.9708,-3.9455,-3.9478,-3.9488,-3.9519,-3.9533,-3.9555,-3.9566,-3.9581,-3.9596,-3.9623,-3.9641,-3.9652,-3.967,-3.9693,-3.9712,-3.9716,-3.9724,-3.9726,-3.9731,-3.9715,-3.9713,-3.9711,-3.9707,-3.9727,-3.9727,-3.9746,-3.9746,-3.9746]}]]